Location: Eindhoven
(51.4416°N, 5.4697°E)
Time: 17:36:39
(UTC+01:00)

deb Explorer IX - Pass Details

Date: 21 November 2019
Orbit: 546 x 1104 km, 38.8° (Epoch: 11 December)

Event Time Altitude Azimuth Distance (km) Brightness Sun altitude
Rises 04:14:07 0° 255° (WSW) 3,542 - -35.4°
Reaches altitude 10° 04:17:33 10° 239° (WSW) 2,485 - -34.9°
Maximum altitude 04:21:34 19° 195° (SSW) 1,786 - -34.3°
Drops below altitude 10° 04:25:12 10° 151° (SSE) 2,211 - -33.7°
Exits shadow 04:25:22 - 150° (SSE) 2,251 ? -33.7°
Sets 04:28:02 0° 133° (SE) 3,028 ? -33.3°
